This is the latest recevied weather packets stored in our database for station/object KBTL-WX. If no packets are shown the sender has not sent any weather packets the latest 10 day(s).
| Time | Temp. | Humidity | Pressure | Rain* | Wind** | Luminosity | Snow |
|---|---|---|---|---|---|---|---|
| 1777470312 | 10° C | 84% | 980.3 hPa | 0 mm | - | - | - |
| 1777469431 | 10° C | 84% | 980.3 hPa | 0 mm | - | - | - |
| 1777468512 | 8.89° C | 84% | 980.2 hPa | 0 mm | - | - | - |
| 1777467636 | 8.89° C | 84% | 980.2 hPa | 0 mm | - | - | - |
| 1777466713 | 8.89° C | 87% | 980.4 hPa | 0 mm | - | - | - |
| 1777465832 | 9.44° C | 88% | 980.2 hPa | 0 mm | - | - | - |
| 1777464913 | 9.44° C | 88% | 980.2 hPa | 0 mm | - | - | - |
| 1777464034 | 9.44° C | 88% | 980.2 hPa | 0 mm | - | - | - |
| 1777463113 | 8.89° C | 86% | 979.8 hPa | 0.76 mm | - | - | - |
| 1777462228 | 8.89° C | 89% | 980.1 hPa | 0.76 mm | - | - | - |
| 1777461312 | 8.89° C | 89% | 980.1 hPa | 0 mm | - | - | - |
| 1777460436 | 8.89° C | 89% | 980.1 hPa | 0 mm | - | - | - |
| 1777459513 | 8.89° C | 91% | 979.2 hPa | 0.76 mm | - | - | - |
| 1777458632 | 8.89° C | 89% | 979.6 hPa | 0.76 mm | - | - | - |
| 1777457712 | 8.89° C | 89% | 979.6 hPa | 0 mm | - | - | - |
| 1777456834 | 8.89° C | 89% | 979.6 hPa | 0 mm | - | - | - |
| 1777455913 | 8.89° C | 91% | 979.5 hPa | 0 mm | - | - | - |
| 1777455031 | 9.44° C | 91% | 979.5 hPa | 0 mm | - | - | - |
| 1777454113 | 9.44° C | 91% | 979.5 hPa | 0.25 mm | - | - | - |
| 1777453238 | 9.44° C | 91% | 979.5 hPa | 0.25 mm | - | - | - |
| 1777452313 | 9.44° C | 88% | 978.8 hPa | 0 mm | - | - | - |
| 1777451432 | 8.89° C | 86% | 978.3 hPa | 0 mm | - | - | - |
| 1777450513 | 8.89° C | 86% | 978.3 hPa | 0 mm | - | - | - |
| 1777449637 | 8.89° C | 86% | 978.3 hPa | 0 mm | - | - | - |
| 1777448713 | 8.89° C | 82% | 979 hPa | 0 mm | - | - | - |
* Rain latest hour (hover to see other rain measurements)
** Current wind speed in m/s (hover to see current wind gust speed)